TimeCST,TemperatureF,Dew PointF,Humidity,Sea Level PressureIn,VisibilityMPH,Wind Direction,Wind SpeedMPH,Gust SpeedMPH,PrecipitationIn,Events,Conditions,WindDirDegrees,DateUTC
12:21 AM,12.9,7.0,77,30.31,2.5,NE,10.4,-,0.00,Snow,Light Snow,40,2014-02-04 06:21:00
12:53 AM,12.9,7.0,77,30.40,3.0,NE,11.5,-,0.00,Snow,Light Snow,40,2014-02-04 06:53:00
1:00 AM,12.0,7.0,80,30.32,3.0,NE,10.4,-,0.00,Snow,Light Snow,50,2014-02-04 07:00:00
1:53 AM,12.0,6.1,77,30.40,5.0,NE,11.5,-,0.00,Snow,Light Snow,40,2014-02-04 07:53:00
2:53 AM,10.9,5.0,77,30.40,4.0,NNE,12.7,-,0.00,Snow,Light Snow,30,2014-02-04 08:53:00
3:53 AM,8.1,3.0,80,30.41,8.0,NE,10.4,-,0.00,Snow,Light Snow,40,2014-02-04 09:53:00
4:35 AM,3.9,-0.0,84,30.34,10.0,NE,8.1,-,0.00,,Mostly Cloudy,50,2014-02-04 10:35:00
4:53 AM,3.9,-0.0,84,30.43,8.0,NE,6.9,-,0.00,Snow,Light Snow,40,2014-02-04 10:53:00
5:53 AM,9.0,3.0,77,30.44,10.0,NE,9.2,-,0.00,,Overcast,50,2014-02-04 11:53:00
6:53 AM,9.0,3.0,77,30.45,10.0,NNE,11.5,-,N/A,,Overcast,30,2014-02-04 12:53:00
7:53 AM,8.1,3.0,80,30.47,10.0,NNE,13.8,-,N/A,,Overcast,20,2014-02-04 13:53:00
8:44 AM,6.1,1.0,80,30.38,10.0,NNE,17.3,-,N/A,,Overcast,20,2014-02-04 14:44:00
8:53 AM,6.1,-0.0,76,30.48,7.0,NNE,19.6,-,0.00,Snow,Light Snow,20,2014-02-04 14:53:00
9:53 AM,6.1,-0.0,76,30.46,4.0,NNE,17.3,-,0.00,Snow,Light Snow,20,2014-02-04 15:53:00
10:53 AM,6.1,-0.9,73,30.47,8.0,NNE,20.7,-,0.00,,Overcast,20,2014-02-04 16:53:00
11:53 AM,6.1,-0.9,73,30.48,10.0,NNE,18.4,-,0.00,,Overcast,20,2014-02-04 17:53:00
12:37 PM,6.1,-0.9,73,30.34,2.5,NNE,23.0,-,0.00,Snow,Light Snow,20,2014-02-04 18:37:00
12:53 PM,6.1,-2.0,69,30.43,5.0,North,23.0,-,0.00,Snow,Light Snow,10,2014-02-04 18:53:00
1:53 PM,6.1,-2.0,69,30.43,10.0,North,21.9,-,0.00,,Overcast,10,2014-02-04 19:53:00
2:53 PM,6.1,-2.9,67,30.44,10.0,North,18.4,-,N/A,,Overcast,10,2014-02-04 20:53:00
3:53 PM,6.1,-2.9,67,30.44,10.0,North,19.6,-,N/A,,Overcast,10,2014-02-04 21:53:00
4:53 PM,5.0,-5.1,63,30.46,10.0,North,17.3,-,N/A,,Overcast,360,2014-02-04 22:53:00
5:53 PM,3.0,-6.0,66,30.46,10.0,North,18.4,-,N/A,,Overcast,10,2014-02-04 23:53:00
6:53 PM,3.0,-6.0,66,30.48,10.0,North,17.3,-,N/A,,Overcast,360,2014-02-05 00:53:00
7:53 PM,3.0,-6.0,66,30.49,10.0,North,17.3,-,N/A,,Overcast,10,2014-02-05 01:53:00
8:53 PM,1.9,-7.1,66,30.50,6.0,North,21.9,26.5,0.00,Snow,Light Snow,360,2014-02-05 02:53:00
9:53 PM,1.0,-7.1,69,30.51,7.0,North,16.1,26.5,0.00,,Overcast,360,2014-02-05 03:53:00
10:53 PM,-0.0,-8.0,69,30.52,4.0,North,20.7,-,0.00,,Overcast,360,2014-02-05 04:53:00
11:53 PM,-0.0,-7.1,72,30.52,4.0,North,17.3,25.3,0.00,,Overcast,350,2014-02-05 05:53:00